Showing default

FR 1, 1814

Orbit data source: Space-Track

FR 1, 1814 is a payload satellite owned by CNES (FR) in LEO that was launched on Mon, 06 Dec 1965 UTC via an SCOUT X-4 launch vehicle from the Air Force Western Test Range (AFWTR). Payload-class satellites include a variety of spacecraft equipped with specific instruments for various scientific and technological missions. These include communications satellites like Starlink; space stations such as the ISS; scientific satellites like the Hubble; Earth observation satellites from companies like Planet Labs, Umbra, and HawkEye 360; GPS; miniature CubeSats for education and research; and military/defense satellites.

Loading next visibility...
Identifier
1814, 1965-101A
Orbit
LEO
Last TLE update
21 hours ago
Origin
Manufacturer
Nord
Mission
Civil Science
Bus & Motor
FR, Unknown motor
Mass
62 kg wet, 62 kg dry
Launch date (UTC)
1965-12-06 (60 years ago)
Launch vehicle
SCOUT X-4
Launch site
Air Force Western Test Range (AFWTR)
Object type
Payload
Rocket body
Debris
Shape & HBR
Poly + 4 Ant, 4.3 m
Radar Cross Section
1.303 m², Medium (>0.1 m² and < 1m²)

Expand to show TLE details & history

TLE from 21 hours ago
0 FR 1
1 01814U 65101A   25191.52851229  .00000467  00000-0  79048-4 0  9998
2 01814  75.8641 220.2656 0005546 241.4874 118.5749 14.70844900  5850
Epoch: 2025-07-10T12:41Z
TLE epoch observation values (Epoch: 2025-07-10T12:41:03.461Z)
Latitude
-0.00009°
Longitude
101.30766°
Altitude
662.994 km
Speed
7.525 km/s
True Right ascension
14h 41m 03s
True Declination
0° 00' 00"
Sunlit
Object was in daylight at epoch
Visualization orbit readout
Latitude
-55.80512°
Longitude
-58.54342°
Altitude
675.864 km
Speed
7.52 km/s
Apparent Right ascension
07h 11m 54s
Apparent Declination
-56° 14' 30"
Sunlit
Object is in daylight
Visualization observer readout
Local Sidereal Time
21:38:57
Azimuth
136.625° SSE
Elevation
-61.035°
Doppler factor
1
Orbital elements
Apogee altitude
659.709 km
Perigee altitude
651.907 km
Semi-major axis
7,033.945 km
Eccentricity
0.00055
Inclination
75.8641°
RAAN
220.2656°
Arg. of periapsis
241.4874°
True anomaly
Unknown
Mean anomaly
118.5749°
Eccentric anomaly
Unknown
Mean motion
3.67913 °/min
Orbital period
97.85 mins
BSTAR
0.000079048
Loading maneuver chart data...
Loading SW <> Apogee altitude chart data...
Loading historical data...
Loading historical data...
Loading historical data...
Loading historical data...
Loading historical data...
Loading historical data...
Loading historical data...

FR 1 Visibility forecast

Observer location: undefined°, undefined°

Span
Click to sort rows by Start time (UTC) header in descending order
Start Az.
Max El. time (UTC)
Max El. Az.
Max El.
End time (UTC)
End Az.
4 mins2025-07-11 12:06:15.639Z30.161° NE2025-07-11 12:08:15.639Z57.768° ENE14.824°2025-07-11 12:10:15.639Z86.524° E
7 mins2025-07-11 13:45:15.639Z327.677° NNW2025-07-11 13:48:15.639Z257.832° W38.665°2025-07-11 13:52:15.639Z183.173° SSW
6 mins2025-07-12 02:22:15.639Z155.634° SSE2025-07-12 02:24:15.639Z115.799° SE31.694°2025-07-12 02:28:15.639Z36.262° NE
5 mins2025-07-12 04:02:15.639Z263.704° W2025-07-12 04:04:15.639Z295.359° NW18.791°2025-07-12 04:07:15.639Z339.754° N
|